| time (UTC) | temp F | wind direction | speed MPH | gust MPH | rain 1hr in | rain 24hr in | rain mn in | humidity % | barometer mb |
| 20260507172047 | 85 | 360 | 3.0 | 11.0 | 0.00 | 0.00 | 0.00 | 10 | 1009.7 |
| 20260507171945 | 85 | 360 | 3.0 | 11.0 | 0.00 | 0.00 | 0.00 | 10 | 1009.6 |
| 20260507171546 | 85 | 360 | 5.0 | 11.0 | 0.00 | 0.00 | 0.00 | 12 | 1009.8 |
| 20260507171446 | 85 | 360 | 4.0 | 13.0 | 0.00 | 0.00 | 0.00 | 13 | 1009.7 |
| 20260507171046 | 85 | 360 | 6.0 | 13.0 | 0.00 | 0.00 | 0.00 | 12 | 1009.8 |
| 20260507170945 | 85 | 360 | 5.0 | 13.0 | 0.00 | 0.00 | 0.00 | 13 | 1009.7 |
| 20260507170547 | 86 | 360 | 3.0 | 10.0 | 0.00 | 0.00 | 0.00 | 15 | 1009.8 |
| 20260507170051 | 86 | 360 | 5.0 | 10.0 | 0.00 | 0.00 | 0.00 | 16 | 1009.8 |
| 20260507165946 | 86 | 360 | 4.0 | 10.0 | 0.00 | 0.00 | 0.00 | 16 | 1009.8 |
| 20260507165546 | 85 | 360 | 0.0 | 10.0 | 0.00 | 0.00 | 0.00 | 15 | 1009.8 |
| 20260507165446 | 85 | 360 | 0.0 | 10.0 | 0.00 | 0.00 | 0.00 | 15 | 1009.8 |
| 20260507165046 | 85 | 360 | 6.0 | 10.0 | 0.00 | 0.00 | 0.00 | 15 | 1009.8 |
| 20260507164947 | 85 | 360 | 9.0 | 10.0 | 0.00 | 0.00 | 0.00 | 15 | 1009.9 |
| 20260507164557 | 84 | 360 | 3.0 | 10.0 | 0.00 | 0.00 | 0.00 | 15 | 1009.9 |
| 20260507164046 | 84 | 360 | 5.0 | 12.0 | 0.00 | 0.00 | 0.00 | 16 | 1010.0 |
| 20260507163946 | 84 | 360 | 3.0 | 12.0 | 0.00 | 0.00 | 0.00 | 16 | 1009.9 |
| 20260507163547 | 83 | 360 | 3.0 | 12.0 | 0.00 | 0.00 | 0.00 | 18 | 1010.0 |
| 20260507163446 | 83 | 360 | 5.0 | 12.0 | 0.00 | 0.00 | 0.00 | 18 | 1010.0 |
| 20260507163046 | 83 | 360 | 4.0 | 9.0 | 0.00 | 0.00 | 0.00 | 20 | 1010.0 |
| 20260507162948 | 83 | 360 | 5.0 | 9.0 | 0.00 | 0.00 | 0.00 | 21 | 1009.9 |
| 20260507162546 | 83 | 360 | 3.0 | 8.0 | 0.00 | 0.00 | 0.00 | 21 | 1010.2 |
| 20260507162446 | 83 | 360 | 2.0 | 8.0 | 0.00 | 0.00 | 0.00 | 20 | 1010.0 |
| 20260507162046 | 82 | 360 | 3.0 | 9.0 | 0.00 | 0.00 | 0.00 | 21 | 1010.2 |
| 20260507161945 | 82 | 360 | 2.0 | 9.0 | 0.00 | 0.00 | 0.00 | 21 | 1010.1 |
| 20260507161546 | 82 | 360 | 4.0 | 9.0 | 0.00 | 0.00 | 0.00 | 21 | 1010.1 |
| 20260507161446 | 82 | 360 | 5.0 | 9.0 | 0.00 | 0.00 | 0.00 | 22 | 1010.1 |
| 20260507161046 | 80 | 360 | 0.0 | 4.0 | 0.00 | 0.00 | 0.00 | 23 | 1010.2 |
| 20260507160946 | 80 | 360 | 0.0 | 4.0 | 0.00 | 0.00 | 0.00 | 24 | 1010.1 |
| 20260507160546 | 80 | 360 | 2.0 | 6.0 | 0.00 | 0.00 | 0.00 | 25 | 1010.2 |
| 20260507160446 | 80 | 360 | 2.0 | 6.0 | 0.00 | 0.00 | 0.00 | 25 | 1010.1 |
| 20260507160047 | 79 | 360 | 2.0 | 6.0 | 0.00 | 0.00 | 0.00 | 26 | 1010.2 |
| 20260507155946 | 79 | 360 | 1.0 | 6.0 | 0.00 | 0.00 | 0.00 | 26 | 1010.2 |
| 20260507155547 | 79 | 360 | 3.0 | 6.0 | 0.00 | 0.00 | 0.00 | 25 | 1010.2 |
| 20260507155446 | 79 | 360 | 5.0 | 6.0 | 0.00 | 0.00 | 0.00 | 25 | 1010.1 |
| 20260507155047 | 79 | 360 | 4.0 | 6.0 | 0.00 | 0.00 | 0.00 | 24 | 1010.2 |
| 20260507154945 | 79 | 360 | 5.0 | 5.0 | 0.00 | 0.00 | 0.00 | 24 | 1010.2 |
| 20260507154552 | 78 | 360 | 4.0 | 5.0 | 0.00 | 0.00 | 0.00 | 24 | 1010.2 |
| 20260507154446 | 78 | 360 | 4.0 | 5.0 | 0.00 | 0.00 | 0.00 | 25 | 1010.3 |
| 20260507154047 | 79 | 360 | 3.0 | 8.0 | 0.00 | 0.00 | 0.00 | 27 | 1010.3 |
| 20260507153945 | 79 | 360 | 4.0 | 8.0 | 0.00 | 0.00 | 0.00 | 27 | 1010.3 |
| 20260507153546 | 78 | 360 | 3.0 | 8.0 | 0.00 | 0.00 | 0.00 | 25 | 1010.4 |
| 20260507153446 | 78 | 360 | 4.0 | 5.0 | 0.00 | 0.00 | 0.00 | 25 | 1010.3 |
| 20260507153046 | 78 | 360 | 0.0 | 0.0 | 0.00 | 0.00 | 0.00 | 27 | 1010.3 |
| 20260507152946 | 78 | 360 | 0.0 | 0.0 | 0.00 | 0.00 | 0.00 | 27 | 1010.2 |
| 20260507152546 | 78 | 360 | 0.0 | 1.0 | 0.00 | 0.00 | 0.00 | 27 | 1010.3 |
| 20260507152446 | 78 | 360 | 0.0 | 1.0 | 0.00 | 0.00 | 0.00 | 27 | 1010.2 |
| 20260507152048 | 77 | 32 | 0.0 | 1.0 | 0.00 | 0.00 | 0.00 | 28 | 1010.2 |
| 20260507151946 | 77 | 31 | 0.0 | 1.0 | 0.00 | 0.00 | 0.00 | 29 | 1010.3 |
| 20260507151547 | 76 | 360 | 0.0 | 2.0 | 0.00 | 0.00 | 0.00 | 29 | 1010.3 |
| 20260507151446 | 76 | 360 | 0.0 | 2.0 | 0.00 | 0.00 | 0.00 | 30 | 1010.1 |
| 20260507151046 | 76 | 360 | 0.0 | 2.0 | 0.00 | 0.00 | 0.00 | 29 | 1010.2 |
| 20260507150946 | 75 | 360 | 0.0 | 3.0 | 0.00 | 0.00 | 0.00 | 30 | 1010.2 |
| 20260507150547 | 75 | 360 | 0.0 | 3.0 | 0.00 | 0.00 | 0.00 | 30 | 1010.3 |
| 20260507150445 | 75 | 360 | 1.0 | 3.0 | 0.00 | 0.00 | 0.00 | 30 | 1010.2 |
| 20260507150046 | 74 | 360 | 1.0 | 4.0 | 0.00 | 0.00 | 0.00 | 31 | 1010.2 |
| 20260507145946 | 74 | 360 | 1.0 | 4.0 | 0.00 | 0.00 | 0.00 | 31 | 1010.3 |
| 20260507145545 | 74 | 360 | 2.0 | 4.0 | 0.00 | 0.00 | 0.00 | 30 | 1010.3 |
| 20260507145446 | 74 | 360 | 2.0 | 4.0 | 0.00 | 0.00 | 0.00 | 29 | 1010.2 |
| 20260507145046 | 74 | 360 | 1.0 | 3.0 | 0.00 | 0.00 | 0.00 | 30 | 1010.2 |
| 20260507144546 | 74 | 360 | 1.0 | 4.0 | 0.00 | 0.00 | 0.00 | 30 | 1010.3 |
| 20260507144446 | 74 | 360 | 2.0 | 4.0 | 0.00 | 0.00 | 0.00 | 30 | 1010.2 |
| 20260507144048 | 74 | 360 | 2.0 | 5.0 | 0.00 | 0.00 | 0.00 | 29 | 1010.3 |
| 20260507143946 | 74 | 360 | 3.0 | 5.0 | 0.00 | 0.00 | 0.00 | 28 | 1010.3 |
| 20260507143548 | 74 | 360 | 3.0 | 5.0 | 0.00 | 0.00 | 0.00 | 29 | 1010.4 |
| 20260507143446 | 74 | 360 | 3.0 | 5.0 | 0.00 | 0.00 | 0.00 | 29 | 1010.3 |
| 20260507143048 | 74 | 360 | 2.0 | 3.0 | 0.00 | 0.00 | 0.00 | 31 | 1010.3 |
| 20260507142546 | 73 | 360 | 1.0 | 3.0 | 0.00 | 0.00 | 0.00 | 27 | 1010.3 |
| 20260507142445 | 73 | 360 | 1.0 | 3.0 | 0.00 | 0.00 | 0.00 | 27 | 1010.3 |
| 20260507142046 | 73 | 360 | 2.0 | 4.0 | 0.00 | 0.00 | 0.00 | 27 | 1010.3 |
| 20260507141947 | 73 | 360 | 2.0 | 4.0 | 0.00 | 0.00 | 0.00 | 27 | 1010.3 |
| 20260507141552 | 73 | 360 | 2.0 | 4.0 | 0.00 | 0.00 | 0.00 | 27 | 1010.4 |
| 20260507141446 | 73 | 360 | 3.0 | 4.0 | 0.00 | 0.00 | 0.00 | 28 | 1010.2 |
| 20260507141046 | 72 | 360 | 1.0 | 3.0 | 0.00 | 0.00 | 0.00 | 27 | 1010.4 |
| 20260507140946 | 72 | 360 | 1.0 | 3.0 | 0.00 | 0.00 | 0.00 | 28 | 1010.3 |
| 20260507140548 | 72 | 360 | 1.0 | 4.0 | 0.00 | 0.00 | 0.00 | 28 | 1010.3 |
| 20260507140046 | 71 | 360 | 2.0 | 4.0 | 0.00 | 0.00 | 0.00 | 28 | 1010.3 |
| 20260507135546 | 71 | 360 | 1.0 | 4.0 | 0.00 | 0.00 | 0.00 | 28 | 1010.2 |
| 20260507135446 | 70 | 360 | 3.0 | 4.0 | 0.00 | 0.00 | 0.00 | 28 | 1010.2 |
| 20260507135046 | 70 | 360 | 0.0 | 5.0 | 0.00 | 0.00 | 0.00 | 29 | 1010.2 |
| 20260507134946 | 69 | 360 | 0.0 | 5.0 | 0.00 | 0.00 | 0.00 | 29 | 1010.1 |
| 20260507134546 | 69 | 360 | 2.0 | 5.0 | 0.00 | 0.00 | 0.00 | 29 | 1010.2 |
| 20260507134446 | 69 | 360 | 3.0 | 5.0 | 0.00 | 0.00 | 0.00 | 29 | 1010.2 |
| 20260507134046 | 69 | 360 | 3.0 | 4.0 | 0.00 | 0.00 | 0.00 | 29 | 1010.1 |
| 20260507133946 | 69 | 360 | 3.0 | 4.0 | 0.00 | 0.00 | 0.00 | 29 | 1010.0 |
| 20260507133547 | 69 | 360 | 3.0 | 6.0 | 0.00 | 0.00 | 0.00 | 28 | 1010.1 |
| 20260507133446 | 69 | 360 | 2.0 | 6.0 | 0.00 | 0.00 | 0.00 | 28 | 1010.0 |
| 20260507133100 | 69 | 360 | 3.0 | 6.0 | 0.00 | 0.00 | 0.00 | 29 | 1010.0 |
| 20260507132945 | 69 | 360 | 5.0 | 5.0 | 0.00 | 0.00 | 0.00 | 29 | 1010.0 |
| 20260507132545 | 69 | 360 | 0.0 | 1.0 | 0.00 | 0.00 | 0.00 | 29 | 1010.0 |
| 20260507132446 | 69 | 360 | 0.0 | 0.0 | 0.00 | 0.00 | 0.00 | 29 | 1009.9 |
| 20260507132046 | 68 | 360 | 0.0 | 0.0 | 0.00 | 0.00 | 0.00 | 30 | 1009.9 |
| 20260507131946 | 69 | 360 | 0.0 | 1.0 | 0.00 | 0.00 | 0.00 | 30 | 1009.8 |
| 20260507131552 | 68 | 360 | 0.0 | 2.0 | 0.00 | 0.00 | 0.00 | 30 | 1009.9 |
| 20260507131446 | 68 | 360 | 0.0 | 2.0 | 0.00 | 0.00 | 0.00 | 30 | 1009.8 |
| 20260507131046 | 68 | 360 | 0.0 | 2.0 | 0.00 | 0.00 | 0.00 | 30 | 1010.0 |
| 20260507130945 | 68 | 360 | 1.0 | 2.0 | 0.00 | 0.00 | 0.00 | 30 | 1009.9 |
| 20260507130545 | 68 | 360 | 1.0 | 5.0 | 0.00 | 0.00 | 0.00 | 30 | 1009.9 |
| 20260507130446 | 69 | 360 | 1.0 | 5.0 | 0.00 | 0.00 | 0.00 | 30 | 1009.8 |
| 20260507130103 | 69 | 360 | 2.0 | 5.0 | 0.00 | 0.00 | 0.00 | 30 | 1009.9 |
| 20260507125546 | 69 | 360 | 2.0 | 4.0 | 0.00 | 0.00 | 0.00 | 30 | 1009.8 |
| 20260507125446 | 69 | 360 | 3.0 | 3.0 | 0.00 | 0.00 | 0.00 | 30 | 1009.8 |
| 20260507125045 | 69 | 360 | 0.0 | 0.0 | 0.00 | 0.00 | 0.00 | 30 | 1009.8 |
| 20260507124945 | 69 | 360 | 0.0 | 0.0 | 0.00 | 0.00 | 0.00 | 30 | 1009.7 |
| 20260507124546 | 69 | 360 | 0.0 | 0.0 | 0.00 | 0.00 | 0.00 | 30 | 1009.8 |
| 20260507124446 | 69 | 360 | 0.0 | 0.0 | 0.00 | 0.00 | 0.00 | 30 | 1009.7 |
| 20260507124046 | 69 | 360 | 0.0 | 0.0 | 0.00 | 0.00 | 0.00 | 30 | 1009.8 |
| 20260507123946 | 69 | 360 | 0.0 | 0.0 | 0.00 | 0.00 | 0.00 | 30 | 1009.8 |
| 20260507123546 | 69 | 360 | 0.0 | 0.0 | 0.00 | 0.00 | 0.00 | 30 | 1009.7 |
| 20260507123445 | 69 | 360 | 0.0 | 0.0 | 0.00 | 0.00 | 0.00 | 30 | 1009.7 |
| 20260507123046 | 69 | 360 | 0.0 | 0.0 | 0.00 | 0.00 | 0.00 | 30 | 1009.7 |
| 20260507122546 | 69 | 360 | 0.0 | 1.0 | 0.00 | 0.00 | 0.00 | 30 | 1009.7 |
| 20260507122446 | 69 | 360 | 0.0 | 1.0 | 0.00 | 0.00 | 0.00 | 30 | 1009.6 |
| 20260507122046 | 69 | 360 | 0.0 | 5.0 | 0.00 | 0.00 | 0.00 | 30 | 1009.7 |
| 20260507121945 | 69 | 360 | 0.0 | 5.0 | 0.00 | 0.00 | 0.00 | 30 | 1009.6 |
| 20260507121602 | 69 | 360 | 1.0 | 5.0 | 0.00 | 0.00 | 0.00 | 30 | 1009.7 |
| 20260507121446 | 69 | 360 | 2.0 | 5.0 | 0.00 | 0.00 | 0.00 | 30 | 1009.7 |
| 20260507121046 | 69 | 360 | 2.0 | 5.0 | 0.00 | 0.00 | 0.00 | 30 | 1009.7 |
| 20260507120946 | 69 | 360 | 2.0 | 5.0 | 0.00 | 0.00 | 0.00 | 30 | 1009.6 |
| 20260507120547 | 69 | 360 | 3.0 | 5.0 | 0.00 | 0.00 | 0.00 | 30 | 1009.7 |
| 20260507120445 | 69 | 360 | 4.0 | 5.0 | 0.00 | 0.00 | 0.00 | 30 | 1009.5 |
| 20260507120055 | 69 | 360 | 1.0 | 5.0 | 0.00 | 0.00 | 0.00 | 30 | 1009.7 |
| 20260507115946 | 69 | 360 | 1.0 | 5.0 | 0.00 | 0.00 | 0.00 | 30 | 1009.6 |
| 20260507115546 | 69 | 360 | 2.0 | 5.0 | 0.00 | 0.00 | 0.00 | 30 | 1009.6 |
| 20260507115446 | 69 | 360 | 3.0 | 5.0 | 0.00 | 0.00 | 0.00 | 30 | 1009.6 |
| 20260507115049 | 69 | 360 | 2.0 | 4.0 | 0.00 | 0.00 | 0.00 | 31 | 1009.7 |
| 20260507114627 | 69 | 360 | 2.0 | 6.0 | 0.00 | 0.00 | 0.00 | 30 | 1009.8 |
| 20260507114049 | 69 | 360 | 4.0 | 6.0 | 0.00 | 0.00 | 0.00 | 30 | 1009.7 |
| 20260507113945 | 69 | 360 | 4.0 | 6.0 | 0.00 | 0.00 | 0.00 | 30 | 1009.8 |
| 20260507113548 | 69 | 360 | 3.0 | 6.0 | 0.00 | 0.00 | 0.00 | 30 | 1009.8 |
| 20260507113446 | 69 | 360 | 4.0 | 6.0 | 0.00 | 0.00 | 0.00 | 30 | 1009.8 |
| 20260507113046 | 68 | 360 | 3.0 | 6.0 | 0.00 | 0.00 | 0.00 | 30 | 1009.8 |
| 20260507112945 | 68 | 360 | 4.0 | 5.0 | 0.00 | 0.00 | 0.00 | 30 | 1009.7 |
| 20260507112546 | 68 | 360 | 2.0 | 5.0 | 0.00 | 0.00 | 0.00 | 30 | 1009.8 |
| 20260507112445 | 68 | 360 | 3.0 | 4.0 | 0.00 | 0.00 | 0.00 | 30 | 1009.8 |
| 20260507112045 | 69 | 360 | 2.0 | 4.0 | 0.00 | 0.00 | 0.00 | 30 | 1009.9 |
| 20260507111547 | 69 | 360 | 3.0 | 6.0 | 0.00 | 0.00 | 0.00 | 30 | 1009.7 |
| 20260507111445 | 69 | 360 | 3.0 | 6.0 | 0.00 | 0.00 | 0.00 | 30 | 1009.8 |
| 20260507111046 | 69 | 360 | 2.0 | 6.0 | 0.00 | 0.00 | 0.00 | 30 | 1009.9 |
| 20260507110946 | 69 | 360 | 3.0 | 6.0 | 0.00 | 0.00 | 0.00 | 30 | 1009.8 |
| 20260507110546 | 69 | 360 | 1.0 | 3.0 | 0.00 | 0.00 | 0.00 | 28 | 1009.8 |
| 20260507110445 | 69 | 360 | 2.0 | 3.0 | 0.00 | 0.00 | 0.00 | 28 | 1009.7 |
| 20260507110046 | 69 | 360 | 0.0 | 3.0 | 0.00 | 0.00 | 0.00 | 29 | 1009.9 |
| 20260507105946 | 69 | 360 | 0.0 | 3.0 | 0.00 | 0.00 | 0.00 | 29 | 1009.9 |
| 20260507105545 | 69 | 360 | 1.0 | 2.0 | 0.00 | 0.00 | 0.00 | 29 | 1009.9 |
| 20260507105446 | 68 | 360 | 1.0 | 3.0 | 0.00 | 0.00 | 0.00 | 29 | 1010.0 |
| 20260507105046 | 68 | 360 | 1.0 | 3.0 | 0.00 | 0.00 | 0.00 | 30 | 1010.1 |
| 20260507104945 | 68 | 360 | 2.0 | 3.0 | 0.00 | 0.00 | 0.00 | 30 | 1010.0 |
| 20260507104547 | 68 | 360 | 2.0 | 3.0 | 0.00 | 0.00 | 0.00 | 30 | 1010.0 |
| 20260507104445 | 68 | 360 | 2.0 | 3.0 | 0.00 | 0.00 | 0.00 | 31 | 1010.1 |
| 20260507104046 | 67 | 360 | 1.0 | 3.0 | 0.00 | 0.00 | 0.00 | 31 | 1010.1 |
| 20260507103545 | 67 | 360 | 0.0 | 3.0 | 0.00 | 0.00 | 0.00 | 32 | 1010.2 |
| 20260507103446 | 67 | 360 | 0.0 | 3.0 | 0.00 | 0.00 | 0.00 | 32 | 1010.1 |
| 20260507103046 | 67 | 360 | 1.0 | 3.0 | 0.00 | 0.00 | 0.00 | 32 | 1010.2 |
| 20260507102945 | 67 | 360 | 1.0 | 3.0 | 0.00 | 0.00 | 0.00 | 32 | 1010.2 |
| 20260507102547 | 67 | 360 | 0.0 | 3.0 | 0.00 | 0.00 | 0.00 | 33 | 1010.3 |
| 20260507102445 | 67 | 360 | 0.0 | 3.0 | 0.00 | 0.00 | 0.00 | 33 | 1010.2 |
| 20260507102046 | 67 | 360 | 1.0 | 3.0 | 0.00 | 0.00 | 0.00 | 33 | 1010.2 |
| 20260507101548 | 67 | 360 | 0.0 | 4.0 | 0.00 | 0.00 | 0.00 | 32 | 1010.2 |
| 20260507101445 | 67 | 360 | 0.0 | 4.0 | 0.00 | 0.00 | 0.00 | 32 | 1010.2 |
| 20260507101046 | 67 | 360 | 1.0 | 3.0 | 0.00 | 0.00 | 0.00 | 32 | 1010.2 |
| 20260507100946 | 67 | 360 | 1.0 | 3.0 | 0.00 | 0.00 | 0.00 | 32 | 1010.2 |
| 20260507100546 | 68 | 360 | 1.0 | 4.0 | 0.00 | 0.00 | 0.00 | 32 | 1010.3 |
| 20260507100446 | 68 | 360 | 2.0 | 4.0 | 0.00 | 0.00 | 0.00 | 32 | 1010.1 |
| 20260507100047 | 68 | 360 | 1.0 | 4.0 | 0.00 | 0.00 | 0.00 | 31 | 1010.2 |
| 20260507095946 | 68 | 360 | 2.0 | 4.0 | 0.00 | 0.00 | 0.00 | 32 | 1010.3 |
| 20260507095546 | 68 | 360 | 2.0 | 4.0 | 0.00 | 0.00 | 0.00 | 32 | 1010.1 |
| 20260507095445 | 68 | 360 | 2.0 | 3.0 | 0.00 | 0.00 | 0.00 | 32 | 1010.1 |
| 20260507095045 | 68 | 360 | 1.0 | 8.0 | 0.00 | 0.00 | 0.00 | 32 | 1010.0 |
| 20260507094946 | 69 | 360 | 2.0 | 8.0 | 0.00 | 0.00 | 0.00 | 32 | 1010.0 |
| 20260507094546 | 69 | 360 | 3.0 | 9.0 | 0.00 | 0.00 | 0.00 | 31 | 1010.2 |
| 20260507094446 | 69 | 360 | 3.0 | 10.0 | 0.00 | 0.00 | 0.00 | 31 | 1010.1 |
| 20260507094045 | 69 | 360 | 5.0 | 10.0 | 0.00 | 0.00 | 0.00 | 30 | 1010.2 |
| 20260507093946 | 69 | 360 | 6.0 | 10.0 | 0.00 | 0.00 | 0.00 | 31 | 1010.1 |
| 20260507093546 | 69 | 360 | 3.0 | 6.0 | 0.00 | 0.00 | 0.00 | 29 | 1010.2 |
| 20260507093446 | 69 | 360 | 3.0 | 5.0 | 0.00 | 0.00 | 0.00 | 29 | 1010.1 |
| 20260507093049 | 69 | 360 | 2.0 | 5.0 | 0.00 | 0.00 | 0.00 | 29 | 1010.1 |
| 20260507092946 | 69 | 360 | 3.0 | 5.0 | 0.00 | 0.00 | 0.00 | 29 | 1010.1 |
| 20260507092546 | 69 | 360 | 3.0 | 6.0 | 0.00 | 0.00 | 0.00 | 30 | 1010.0 |
| 20260507092446 | 69 | 360 | 3.0 | 6.0 | 0.00 | 0.00 | 0.00 | 31 | 1010.0 |
| 20260507092045 | 69 | 360 | 3.0 | 8.0 | 0.00 | 0.00 | 0.00 | 30 | 1010.1 |
| 20260507091945 | 69 | 360 | 5.0 | 8.0 | 0.00 | 0.00 | 0.00 | 31 | 1010.0 |
| 20260507091547 | 69 | 360 | 4.0 | 8.0 | 0.00 | 0.00 | 0.00 | 31 | 1010.0 |
| 20260507091445 | 69 | 360 | 4.0 | 8.0 | 0.00 | 0.00 | 0.00 | 31 | 1009.9 |
| 20260507091046 | 69 | 360 | 5.0 | 10.0 | 0.00 | 0.00 | 0.00 | 31 | 1010.1 |
| 20260507090545 | 69 | 360 | 4.0 | 10.0 | 0.00 | 0.00 | 0.00 | 32 | 1010.1 |
| 20260507090445 | 69 | 360 | 5.0 | 10.0 | 0.00 | 0.00 | 0.00 | 32 | 1010.0 |
| 20260507090048 | 69 | 360 | 4.0 | 6.0 | 0.00 | 0.00 | 0.00 | 31 | 1010.1 |
| 20260507085946 | 69 | 360 | 6.0 | 6.0 | 0.00 | 0.00 | 0.00 | 31 | 1010.0 |
| 20260507085546 | 70 | 360 | 3.0 | 6.0 | 0.00 | 0.00 | 0.00 | 33 | 1010.2 |
| 20260507085445 | 70 | 360 | 4.0 | 6.0 | 0.00 | 0.00 | 0.00 | 33 | 1010.0 |
| 20260507085047 | 70 | 360 | 4.0 | 6.0 | 0.00 | 0.00 | 0.00 | 32 | 1010.1 |
| 20260507084947 | 70 | 360 | 4.0 | 6.0 | 0.00 | 0.00 | 0.00 | 32 | 1010.1 |
| 20260507084555 | 71 | 360 | 3.0 | 6.0 | 0.00 | 0.00 | 0.00 | 32 | 1010.1 |
| 20260507084445 | 71 | 360 | 3.0 | 5.0 | 0.00 | 0.00 | 0.00 | 32 | 1010.1 |
| 20260507084050 | 71 | 360 | 2.0 | 6.0 | 0.00 | 0.00 | 0.00 | 31 | 1010.2 |
| 20260507083945 | 71 | 360 | 3.0 | 6.0 | 0.00 | 0.00 | 0.00 | 31 | 1010.1 |
| 20260507083546 | 72 | 360 | 3.0 | 6.0 | 0.00 | 0.00 | 0.00 | 29 | 1010.2 |
| 20260507083049 | 73 | 360 | 4.0 | 6.0 | 0.00 | 0.00 | 0.00 | 28 | 1010.3 |
| 20260507082946 | 74 | 360 | 3.0 | 6.0 | 0.00 | 0.00 | 0.00 | 27 | 1010.2 |
| 20260507082546 | 75 | 360 | 4.0 | 6.0 | 0.00 | 0.00 | 0.00 | 26 | 1010.3 |
| 20260507082046 | 76 | 360 | 3.0 | 10.0 | 0.00 | 0.00 | 0.00 | 24 | 1010.2 |
| 20260507081945 | 76 | 360 | 4.0 | 11.0 | 0.00 | 0.00 | 0.00 | 24 | 1010.1 |
| 20260507081547 | 76 | 360 | 3.0 | 11.0 | 0.00 | 0.00 | 0.00 | 24 | 1010.1 |
| 20260507081445 | 77 | 360 | 2.0 | 11.0 | 0.00 | 0.00 | 0.00 | 23 | 1010.2 |
| 20260507081046 | 76 | 360 | 6.0 | 11.0 | 0.00 | 0.00 | 0.00 | 21 | 1010.2 |
| 20260507080546 | 76 | 360 | 5.0 | 10.0 | 0.00 | 0.00 | 0.00 | 21 | 1010.3 |
| 20260507080445 | 76 | 360 | 6.0 | 10.0 | 0.00 | 0.00 | 0.00 | 20 | 1010.2 |
| 20260507080100 | 76 | 360 | 4.0 | 10.0 | 0.00 | 0.00 | 0.00 | 21 | 1010.3 |
| 20260507075946 | 76 | 360 | 4.0 | 10.0 | 0.00 | 0.00 | 0.00 | 21 | 1010.3 |
| 20260507075546 | 76 | 360 | 5.0 | 10.0 | 0.00 | 0.00 | 0.00 | 21 | 1010.3 |
| 20260507075046 | 76 | 360 | 4.0 | 10.0 | 0.00 | 0.00 | 0.00 | 21 | 1010.4 |
| 20260507074946 | 76 | 360 | 6.0 | 10.0 | 0.00 | 0.00 | 0.00 | 21 | 1010.3 |
| 20260507074548 | 76 | 360 | 4.0 | 10.0 | 0.00 | 0.00 | 0.00 | 21 | 1010.3 |
| 20260507074046 | 76 | 360 | 6.0 | 12.0 | 0.00 | 0.00 | 0.00 | 21 | 1010.4 |
| 20260507073546 | 76 | 360 | 4.0 | 12.0 | 0.00 | 0.00 | 0.00 | 21 | 1010.4 |
| 20260507073446 | 76 | 360 | 4.0 | 12.0 | 0.00 | 0.00 | 0.00 | 21 | 1010.2 |
| 20260507073021 | 75 | 360 | 6.0 | 11.0 | 0.00 | 0.00 | 0.00 | 22 | 1010.5 |
| 20260507072814 | 75 | 360 | 10.0 | 10.0 | 0.00 | 0.00 | 0.00 | 22 | 1010.4 |
| 20260507072506 | 75 | 360 | 3.0 | 8.0 | 0.00 | 0.00 | 0.00 | 24 | 1010.5 |
| 20260507072259 | 75 | 360 | 6.0 | 8.0 | 0.00 | 0.00 | 0.00 | 23 | 1010.4 |
| 20260507072053 | 75 | 360 | 3.0 | 9.0 | 0.00 | 0.00 | 0.00 | 23 | 1010.4 |
| 20260507071745 | 75 | 360 | 3.0 | 9.0 | 0.00 | 0.00 | 0.00 | 23 | 1010.3 |
| 20260507071538 | 75 | 360 | 4.0 | 9.0 | 0.00 | 0.00 | 0.00 | 24 | 1010.5 |
| 20260507071229 | 75 | 360 | 6.0 | 9.0 | 0.00 | 0.00 | 0.00 | 24 | 1010.3 |
| 20260507071024 | 76 | 360 | 5.0 | 9.0 | 0.00 | 0.00 | 0.00 | 22 | 1010.4 |
| 20260507070714 | 76 | 360 | 5.0 | 9.0 | 0.00 | 0.00 | 0.00 | 23 | 1010.3 |
| 20260507070509 | 76 | 360 | 4.0 | 10.0 | 0.00 | 0.00 | 0.00 | 23 | 1010.4 |
| 20260507070159 | 77 | 360 | 2.0 | 11.0 | 0.00 | 0.00 | 0.00 | 21 | 1010.4 |
| 20260507070057 | 77 | 360 | 3.0 | 11.0 | 0.00 | 0.00 | 0.00 | 22 | 1010.5 |
| 20260507065644 | 77 | 360 | 9.0 | 12.0 | 0.00 | 0.00 | 0.00 | 20 | 1010.4 |
| 20260507065544 | 77 | 360 | 6.0 | 12.0 | 0.00 | 0.00 | 0.00 | 20 | 1010.5 |
| 20260507065129 | 77 | 360 | 9.0 | 11.0 | 0.00 | 0.00 | 0.00 | 20 | 1010.5 |
| 20260507065027 | 77 | 360 | 8.0 | 11.0 | 0.00 | 0.00 | 0.00 | 20 | 1010.4 |
| 20260507064614 | 78 | 360 | 10.0 | 12.0 | 0.00 | 0.00 | 0.00 | 20 | 1010.3 |
| 20260507064511 | 78 | 360 | 6.0 | 12.0 | 0.00 | 0.00 | 0.00 | 20 | 1010.4 |
| 20260507064100 | 78 | 360 | 5.0 | 12.0 | 0.00 | 0.00 | 0.00 | 20 | 1010.5 |
| 20260507064059 | 78 | 360 | 5.0 | 12.0 | 0.00 | 0.00 | 0.00 | 20 | 1010.4 |
| 20260507063545 | 78 | 360 | 5.0 | 12.0 | 0.00 | 0.00 | 0.00 | 20 | 1010.5 |
| 20260507063029 | 78 | 360 | 5.0 | 11.0 | 0.00 | 0.00 | 0.00 | 20 | 1010.4 |
| 20260507062515 | 78 | 360 | 5.0 | 10.0 | 0.00 | 0.00 | 0.00 | 20 | 1010.4 |
| 20260507062102 | 78 | 360 | 6.0 | 11.0 | 0.00 | 0.00 | 0.00 | 20 | 1010.5 |
| 20260507061959 | 78 | 360 | 8.0 | 12.0 | 0.00 | 0.00 | 0.00 | 20 | 1010.4 |
| 20260507061548 | 78 | 360 | 6.0 | 13.0 | 0.00 | 0.00 | 0.00 | 20 | 1010.4 |
| 20260507061444 | 78 | 360 | 4.0 | 13.0 | 0.00 | 0.00 | 0.00 | 20 | 1010.4 |
| 20260507061033 | 78 | 360 | 7.0 | 13.0 | 0.00 | 0.00 | 0.00 | 20 | 1010.5 |
| 20260507060929 | 78 | 360 | 6.0 | 11.0 | 0.00 | 0.00 | 0.00 | 20 | 1010.4 |
| 20260507060517 | 78 | 360 | 7.0 | 11.0 | 0.00 | 0.00 | 0.00 | 20 | 1010.5 |
| 20260507060414 | 78 | 360 | 6.0 | 11.0 | 0.00 | 0.00 | 0.00 | 20 | 1010.4 |
| 20260507060004 | 78 | 360 | 6.0 | 12.0 | 0.00 | 0.00 | 0.00 | 20 | 1010.5 |
| 20260507055859 | 78 | 360 | 6.0 | 12.0 | 0.00 | 0.00 | 0.00 | 20 | 1010.4 |
| 20260507055551 | 78 | 360 | 6.0 | 12.0 | 0.00 | 0.00 | 0.00 | 20 | 1010.4 |
| 20260507055344 | 78 | 360 | 8.0 | 12.0 | 0.00 | 0.00 | 0.00 | 20 | 1010.5 |
| 20260507055035 | 78 | 360 | 5.0 | 11.0 | 0.00 | 0.00 | 0.00 | 20 | 1010.6 |
| 20260507054829 | 78 | 360 | 5.0 | 11.0 | 0.00 | 0.00 | 0.00 | 20 | 1010.5 |
| 20260507054527 | 79 | 360 | 7.0 | 12.0 | 0.00 | 0.00 | 0.00 | 20 | 1010.5 |
| 20260507054314 | 79 | 360 | 8.0 | 12.0 | 0.00 | 0.00 | 0.00 | 20 | 1010.4 |
| 20260507054005 | 79 | 360 | 6.0 | 12.0 | 0.00 | 0.00 | 0.00 | 20 | 1010.5 |
| 20260507053555 | 79 | 360 | 6.0 | 10.0 | 0.00 | 0.00 | 0.00 | 20 | 1010.5 |
| 20260507053244 | 78 | 360 | 9.0 | 11.0 | 0.00 | 0.00 | 0.00 | 20 | 1010.5 |
| 20260507053039 | 78 | 360 | 7.0 | 11.0 | 0.00 | 0.00 | 0.00 | 20 | 1010.5 |
| 20260507052523 | 78 | 360 | 4.0 | 11.0 | 0.00 | 0.00 | 0.00 | 20 | 1010.5 |
| 20260507052009 | 79 | 360 | 7.0 | 10.0 | 0.00 | 0.00 | 0.00 | 20 | 1010.5 |
| 20260507051659 | 79 | 360 | 5.0 | 10.0 | 0.00 | 0.00 | 0.00 | 20 | 1010.4 |
| 20260507051604 | 79 | 360 | 6.0 | 9.0 | 0.00 | 0.00 | 0.00 | 20 | 1010.4 |
| 20260507051041 | 79 | 360 | 4.0 | 11.0 | 0.00 | 0.00 | 0.00 | 20 | 1010.4 |
| 20260507050628 | 79 | 360 | 8.0 | 11.0 | 0.00 | 0.00 | 0.00 | 20 | 1010.4 |
| 20260507050527 | 79 | 360 | 4.0 | 11.0 | 0.00 | 0.00 | 0.00 | 20 | 1010.4 |
| 20260507050011 | 79 | 360 | 4.0 | 9.0 | 0.00 | 0.00 | 0.00 | 20 | 1010.3 |
| 20260507045559 | 79 | 360 | 4.0 | 9.0 | 0.00 | 0.00 | 0.00 | 20 | 1010.3 |
| 20260507045044 | 79 | 360 | 5.0 | 9.0 | 0.00 | 0.00 | 0.00 | 20 | 1010.4 |
| 20260507044530 | 79 | 360 | 6.0 | 9.0 | 0.00 | 0.00 | 0.00 | 20 | 1010.3 |
| 20260507044017 | 79 | 360 | 2.0 | 9.0 | 0.00 | 0.00 | 0.00 | 20 | 1010.3 |
| 20260507043502 | 79 | 360 | 4.0 | 8.0 | 0.00 | 0.00 | 0.00 | 20 | 1010.3 |
| 20260507043050 | 79 | 360 | 4.0 | 8.0 | 0.00 | 0.00 | 0.00 | 20 | 1010.3 |
| 20260507042946 | 79 | 360 | 5.0 | 8.0 | 0.00 | 0.00 | 0.00 | 20 | 1010.3 |
| 20260507042537 | 79 | 360 | 3.0 | 9.0 | 0.00 | 0.00 | 0.00 | 20 | 1010.3 |
| 20260507042020 | 79 | 360 | 5.0 | 10.0 | 0.00 | 0.00 | 0.00 | 20 | 1010.2 |
| 20260507041505 | 80 | 360 | 4.0 | 10.0 | 0.00 | 0.00 | 0.00 | 20 | 1010.2 |
| 20260507041401 | 80 | 360 | 2.0 | 10.0 | 0.00 | 0.00 | 0.00 | 20 | 1010.1 |
| 20260507041053 | 80 | 360 | 4.0 | 11.0 | 0.00 | 0.00 | 0.00 | 20 | 1010.1 |
| 20260507040540 | 80 | 360 | 7.0 | 12.0 | 0.00 | 0.00 | 0.00 | 20 | 1010.1 |
| 20260507040331 | 80 | 360 | 10.0 | 12.0 | 0.00 | 0.00 | 0.00 | 20 | 1010.0 |
| 20260507040023 | 80 | 360 | 7.0 | 12.0 | 0.00 | 0.00 | 0.00 | 20 | 1010.0 |
| 20260507035817 | 80 | 360 | 3.0 | 12.0 | 0.00 | 0.00 | 0.00 | 20 | 1010.0 |
| 20260507035508 | 80 | 360 | 5.0 | 11.0 | 0.00 | 0.00 | 0.00 | 20 | 1010.0 |
| 20260507035301 | 80 | 360 | 5.0 | 11.0 | 0.00 | 0.00 | 0.00 | 19 | 1009.9 |
| 20260507035056 | 80 | 360 | 6.0 | 10.0 | 0.00 | 0.00 | 0.00 | 19 | 1009.9 |
| 20260507034746 | 80 | 360 | 4.0 | 10.0 | 0.00 | 0.00 | 0.00 | 19 | 1009.8 |
| 20260507034541 | 80 | 360 | 4.0 | 10.0 | 0.00 | 0.00 | 0.00 | 19 | 1009.8 |
| 20260507034238 | 80 | 360 | 5.0 | 10.0 | 0.00 | 0.00 | 0.00 | 19 | 1009.8 |
| 20260507034026 | 80 | 360 | 4.0 | 10.0 | 0.00 | 0.00 | 0.00 | 19 | 1009.8 |
| 20260507033717 | 80 | 360 | 5.0 | 8.0 | 0.00 | 0.00 | 0.00 | 19 | 1009.7 |
| 20260507033514 | 80 | 360 | 6.0 | 8.0 | 0.00 | 0.00 | 0.00 | 19 | 1009.7 |
| 20260507033105 | 81 | 360 | 4.0 | 8.0 | 0.00 | 0.00 | 0.00 | 19 | 1009.7 |